This is the latest recevied weather packets stored in our database for station/object BARLOW-WX. If no packets are shown the sender has not sent any weather packets the latest 10 day(s).
| Time | Temp. | Humidity | Pressure | Rain* | Wind** | Luminosity | Snow |
|---|---|---|---|---|---|---|---|
| 1787529679 | 17.22° C | 59% | 987.5 hPa | 0 mm | - | - | - |
| 1787528780 | 17.78° C | 56% | 986.8 hPa | 0 mm | - | - | - |
| 1787527879 | 17.78° C | 53% | 987.3 hPa | 0 mm | - | - | - |
| 1787526979 | 18.33° C | 53% | 987.3 hPa | 0 mm | - | - | - |
| 1787526080 | 18.33° C | 53% | 987.3 hPa | 0 mm | - | - | - |
| 1787525179 | 18.89° C | 57% | 987.6 hPa | 0 mm | - | - | - |
| 1787524279 | 19.44° C | 53% | 988.2 hPa | 0 mm | - | - | - |
| 1787523379 | 19.44° C | 53% | 988.2 hPa | 0 mm | - | - | - |
| 1787522479 | 20° C | 53% | 988.2 hPa | 0 mm | - | - | - |
| 1787521579 | 20° C | 59% | 987.2 hPa | 0 mm | - | - | - |
| 1787520679 | 20.56° C | 52% | 988.1 hPa | 0 mm | - | - | - |
| 1787519779 | 20.56° C | 52% | 988.2 hPa | 0 mm | - | - | - |
| 1787518879 | 20.56° C | 52% | 988.2 hPa | 0 mm | - | - | - |
| 1787517979 | 20.56° C | 59% | 987.7 hPa | 0 mm | - | - | - |
| 1787517079 | 21.11° C | 46% | 987.7 hPa | 0 mm | - | - | - |
| 1787516180 | 21.11° C | 46% | 987.7 hPa | 0 mm | - | - | - |
| 1787515280 | 21.11° C | 46% | 987.7 hPa | 0 mm | - | - | - |
| 1787514380 | 21.11° C | 48% | 986.9 hPa | 0 mm | - | - | - |
| 1787513479 | 21.11° C | 48% | 986.9 hPa | 0 mm | - | - | - |
| 1787512579 | 21.11° C | 48% | 986.9 hPa | 0 mm | - | - | - |
| 1787511681 | 21.67° C | 48% | 986.9 hPa | 0 mm | - | - | - |
| 1787510779 | 21.67° C | 58% | 987.2 hPa | 0 mm | - | - | - |
| 1787509879 | 21.67° C | 49% | 987.8 hPa | 0 mm | - | - | - |
| 1787508979 | 21.67° C | 49% | 987.8 hPa | 0 mm | - | - | - |
| 1787508080 | 21.11° C | 49% | 987.8 hPa | 0 mm | - | - | - |
* Rain latest hour (hover to see other rain measurements)
** Current wind speed in m/s (hover to see current wind gust speed)